Weather History for KMCK - April, 2015

Change the Weather History Date:

Saturday, April 18, 2015

  Actual Average Record
Temperature  
Mean Temperature 58 °F 50 °F  
Max Temperature 72 °F 65 °F 95 °F (1948)
Min Temperature 44 °F 35 °F 16 °F (1912)
Degree Days  
Heating Degree Days 8    
Growing Degree Days 8 (Base 50)    
Moisture  
Dew Point 46 °F    
Average Humidity 66    
Maximum Humidity 93    
Minimum Humidity 33    
Precipitation  
Precipitation 0.12 in 0.08 in 0.57 in (1975)
Month to date precipitation 1.24 1.20  
Year to date precipitation 1.61 3.69  
Sea Level Pressure  
Sea Level Pressure 29.82 in    
Wind  
Wind Speed 7 mph (ESE)    
Max Wind Speed 20 mph    
Max Gust Speed 24 mph    
Visibility 10 miles    
Events Rain , Thunderstorm    
T = Trace of Precipitation, MM = Missing Value Source: NWS Daily Summary

Daily Weather History Graph

Daily Weather History Graph

Search for Another Location

Airport or City:

Trip Planner

Search our weather history database for the weather conditions in past years. The results will help you decide how hot, cold, wet, or windy it might be!

Date:

Astronomy

Apr. 18, 2015 Rise Set
Actual Time 7:00 AM CDT 8:24 PM CDT
Civil Twilight 6:31 AM CDT 8:52 PM CDT
Nautical Twilight 5:57 AM CDT 9:26 PM CDT
Astronomical Twilight 5:21 AM CDT 10:02 PM CDT
Moon 7:01 AM CDT (4/18) 8:34 PM CDT (4/18)
Length of Visible Light 14h 20m
Length of Day
13h 23m
Waning Crescent, 0% of the Moon is Illuminated
Apr 18
Waning Crescent
Apr 18
New
Apr 25
First Quarter
May 3
Full
May 11
Last Quarter

Hourly Weather History & Observations

Time (CDT) Temp. Windchill Dew Point Humidity Pressure Visibility Wind Dir Wind Speed Gust Speed Precip Events Conditions
12:53 AM 53.1 °F - 46.9 °F 80% 29.96 in 10.0 mi NW 5.8 mph - 0.00 in   Mostly Cloudy
1:53 AM 52.0 °F - 48.9 °F 89% 29.95 in 10.0 mi Calm Calm - 0.00 in   Overcast
2:53 AM 52.0 °F - 48.9 °F 89% 29.95 in 5.0 mi WNW 9.2 mph - 0.03 in Rain Rain
3:53 AM 51.1 °F - 48.0 °F 89% 29.88 in 10.0 mi NNE 10.4 mph - 0.00 in   Scattered Clouds
4:53 AM 48.9 °F - 46.0 °F 90% 29.87 in 10.0 mi North 9.2 mph - N/A   Clear
5:53 AM 46.9 °F - 44.1 °F 90% 29.87 in 10.0 mi North 8.1 mph - N/A   Clear
6:53 AM 44.1 °F 41.5 °F 42.1 °F 93% 29.89 in 10.0 mi SSW 4.6 mph - N/A   Clear
7:53 AM 46.9 °F - 44.1 °F 90% 29.91 in 10.0 mi WSW 3.5 mph - N/A   Clear
8:53 AM 51.1 °F - 46.0 °F 83% 29.89 in 10.0 mi Calm Calm - N/A   Clear
9:53 AM 54.0 °F - 46.9 °F 77% 29.88 in 10.0 mi East 5.8 mph - N/A   Clear
10:53 AM 57.9 °F - 48.9 °F 72% 29.88 in 10.0 mi ESE 8.1 mph - N/A   Clear
11:34 AM 61.0 °F - 48.0 °F 62% 29.91 in 10.0 mi Variable 5.8 mph - N/A   Mostly Cloudy
11:53 AM 63.0 °F - 48.0 °F 58% 29.88 in 10.0 mi SSE 6.9 mph - N/A   Overcast
12:37 PM 64.0 °F - 48.9 °F 58% 29.89 in 10.0 mi Variable 5.8 mph - N/A   Scattered Clouds
12:53 PM 64.0 °F - 48.0 °F 56% 29.85 in 10.0 mi Variable 3.5 mph - N/A   Partly Cloudy
1:53 PM 66.9 °F - 46.9 °F 49% 29.81 in 10.0 mi SE 6.9 mph - N/A   Clear
2:53 PM 66.9 °F - 46.9 °F 49% 29.78 in 10.0 mi SSE 10.4 mph - N/A   Partly Cloudy
3:53 PM 69.1 °F - 46.0 °F 44% 29.75 in 10.0 mi SE 8.1 mph - N/A   Scattered Clouds
4:53 PM 71.1 °F - 42.1 °F 35% 29.71 in 10.0 mi SE 6.9 mph - N/A   Scattered Clouds
5:53 PM 70.0 °F - 39.9 °F 33% 29.69 in 10.0 mi ESE 8.1 mph - N/A   Scattered Clouds
6:23 PM 69.1 °F - 41.0 °F 36% 29.72 in 10.0 mi ESE 8.1 mph - N/A Thunderstorm Partly Cloudy
6:38 PM 69.1 °F - 39.0 °F 33% 29.72 in 10.0 mi SE 10.4 mph - N/A   Scattered Clouds
6:45 PM 68.0 °F - 41.0 °F 37% 29.72 in 10.0 mi ESE 10.4 mph - N/A Thunderstorm Mostly Cloudy
6:53 PM 66.9 °F - 45.0 °F 45% 29.72 in 10.0 mi SE 8.1 mph - N/A Thunderstorm Mostly Cloudy
7:01 PM 62.1 °F - 44.1 °F 52% 29.75 in 5.0 mi SW 19.6 mph 24.2 mph 0.01 in Rain , Thunderstorm Thunderstorms and Rain
7:15 PM 57.9 °F - 45.0 °F 62% 29.76 in 4.0 mi ESE 9.2 mph 17.3 mph 0.05 in Rain , Thunderstorm Light Thunderstorms and Rain
7:53 PM 55.0 °F - 48.0 °F 77% 29.75 in 10.0 mi East 6.9 mph - 0.09 in Thunderstorm Scattered Clouds
8:02 PM 57.0 °F - 46.9 °F 69% 29.77 in 10.0 mi East 15.0 mph - N/A   Scattered Clouds
8:53 PM 55.0 °F - 45.0 °F 69% 29.76 in 10.0 mi SE 6.9 mph 24.2 mph N/A   Clear
9:53 PM 53.1 °F - 46.9 °F 80% 29.79 in 10.0 mi East 6.9 mph - N/A   Scattered Clouds
10:53 PM 53.1 °F - 46.9 °F 80% 29.80 in 10.0 mi ESE 6.9 mph - N/A   Mostly Cloudy
11:53 PM 54.0 °F - 46.9 °F 77% 29.80 in 10.0 mi ENE 11.5 mph - N/A   Overcast